Wind_Speed
6 6 5 5 6 4 7 8 7 5 3 5 6 7 7 6 6 7 7 8 9 11 12 14 16 18 20 21 23 24 26 27 29 32 34 36 39 41 43 44 45 45 45 44 43 42 41 40 39
10 9 8 7 8 8 8 9 10 8 4 3 3 5 6 7 8 9 9 11 12 13 15 17 18 20 21 23 24 26 28 29 30 32 33 35 37 38 40 42 44 45 47 47 47 47 46 45 44
12 12 10 10 10 10 9 9 8 6 3 2 4 6 7 9 10 11 12 13 14 16 17 19 21 23 25 27 28 30 31 33 34 35 36 37 38 40 41 42 43 44 46 47 49 49 50 49 48
14 14 11 12 12 12 11 11 9 8 6 5 6 7 9 9 10 12 13 15 17 19 21 24 26 28 31 33 35 36 38 39 40 41 42 43 44 45 45 45 46 46 46 47 48 50 51 52 52
14 12 10 11 11 10 10 10 9 8 8 8 8 8 9 11 13 14 16 19 21 24 26 29 32 35 37 39 42 44 45 47 48 49 50 51 52 52 52 52 52 52 51 50 50 50 51 53 53
12 11 12 12 12 13 13 12 12 11 11 10 9 9 11 13 15 18 21 23 26 29 32 35 38 40 43 46 48 51 53 55 57 58 59 59 60 60 60 60 60 59 58 57 55 54 53 53 54
14 14 15 15 16 16 15 14 12 11 10 9 10 11 13 15 19 22 25 28 31 34 37 40 43 47 50 53 56 59 61 64 65 67 68 68 69 69 68 68 68 66 65 64 62 60 59 57 56
17 19 18 17 17 16 14 12 10 9 8 9 11 14 16 19 23 26 29 33 36 39 42 46 49 52 56 59 62 66 69 71 73 75 76 77 77 77 76 75 74 73 72 70 68 67 65 64 62
19 18 17 15 13 12 11 9 8 8 9 11 15 18 21 24 27 30 34 37 41 44 47 50 54 57 61 64 68 71 74 77 79 80 82 83 83 83 83 82 81 79 77 75 73 71 70 69 67
15 14 12 11 9 8 7 8 10 12 14 16 20 23 26 28 31 34 37 40 44 47 51 54 58 62 66 69 72 75 77 80 82 84 85 86 87 88 88 88 86 85 83 81 78 75 73 72 71
11 9 8 7 7 8 10 12 14 16 18 21 23 26 28 31 34 37 40 44 47 51 55 59 63 67 71 74 77 80 81 83 85 87 88 89 91 92 92 92 92 91 88 86 83 81 78 76 75
6 5 5 7 9 11 13 15 16 18 20 23 25 27 30 33 37 40 44 48 52 56 60 64 68 73 76 79 81 83 84 86 88 91 93 95 96 97 96 96 95 94 93 90 87 85 83 80 78
3 5 6 8 11 13 15 16 18 19 21 24 26 28 32 36 40 44 48 52 56 60 64 68 73 77 79 81 82 84 87 91 95 97 98 97 97 95 93 92 90 90 90 89 87 87 85 84 82
7 8 10 11 13 15 17 19 20 21 23 25 28 31 35 39 43 47 51 55 59 63 68 73 76 79 80 82 85 89 92 96 97 94 91 87 84 82 80 79 79 79 80 81 81 82 82 82 83
10 11 12 13 14 15 18 21 23 24 25 27 30 34 38 42 46 50 54 59 63 67 72 75 78 80 82 85 89 93 95 93 89 83 79 76 73 71 69 68 68 69 70 71 73 75 77 78 80
12 13 14 15 16 16 17 21 23 25 26 29 33 37 41 45 49 53 58 62 67 71 75 77 79 82 85 89 92 92 89 85 80 76 74 72 71 69 68 66 64 64 64 66 67 69 71 73 77
13 14 15 16 16 16 18 21 24 26 29 33 36 40 44 48 52 56 60 66 71 74 77 79 81 84 87 90 90 86 81 78 76 74 73 71 69 67 65 63 62 61 61 62 64 67 68 70 72
11 11 14 14 15 16 19 22 26 30 33 36 39 43 47 51 55 59 64 70 74 77 78 80 83 85 87 87 83 78 75 74 74 72 70 68 65 62 60 59 58 57 57 59 61 63 66 69 70
12 12 13 15 17 19 21 24 27 31 34 37 41 45 49 54 58 63 68 73 77 78 80 82 84 86 86 83 78 74 72 72 72 70 67 63 59 57 55 54 52 52 52 54 56 59 63 67 69
13 13 14 16 17 20 21 23 27 31 34 38 43 48 52 57 61 67 72 76 78 79 81 83 85 86 83 79 75 73 73 72 69 65 60 57 54 52 50 48 47 47 47 49 52 55 57 62 67
13 14 14 16 18 21 22 22 27 31 36 41 46 51 55 60 65 70 74 76 78 79 81 83 85 83 79 76 74 73 71 68 63 57 53 51 50 50 49 48 46 44 44 44 46 49 52 56 62
14 15 16 17 20 23 25 25 29 34 40 45 49 53 57 62 67 72 75 76 78 80 81 84 83 79 76 75 74 73 69 64 58 52 49 50 51 51 50 49 48 46 44 42 42 43 47 51 56
15 16 17 19 21 23 25 29 33 37 42 47 51 56 60 64 69 72 74 76 78 80 82 83 80 76 75 75 74 72 67 61 53 50 50 51 53 54 53 52 50 49 46 43 41 41 42 46 51
18 18 19 20 22 25 28 32 36 40 45 49 53 57 61 66 69 71 73 75 77 80 81 81 77 74 74 75 73 70 64 57 51 51 53 54 56 56 56 54 52 51 48 45 42 40 40 41 46
20 21 23 25 26 29 31 34 38 42 46 51 55 59 62 66 69 71 73 75 77 80 80 78 75 73 74 74 71 68 62 55 53 54 56 58 59 58 58 56 54 51 48 45 42 40 39 39 41
22 24 27 29 31 30 32 36 40 44 48 52 56 59 62 66 69 72 74 75 78 79 79 76 73 72 73 73 69 65 60 56 56 59 61 63 63 62 61 59 56 52 49 45 42 40 38 37 38
25 26 28 31 33 35 37 40 43 46 49 52 56 59 63 67 70 72 74 76 78 79 77 74 72 72 73 71 68 64 59 58 59 62 65 67 67 67 65 62 57 53 49 46 42 39 37 35 35
27 29 31 33 37 40 41 42 44 47 49 53 56 60 64 68 70 72 74 76 77 77 76 72 71 72 72 70 68 64 60 60 62 65 68 70 71 71 68 62 56 50 47 44 41 38 35 33 33
29 30 32 34 37 41 44 43 45 46 49 53 57 61 65 68 70 72 74 75 77 76 73 70 70 71 71 69 67 63 61 62 65 68 71 73 74 72 66 58 49 41 38 37 37 36 34 31 30
29 31 33 36 38 40 43 44 45 46 49 53 57 61 65 68 71 72 74 75 75 73 71 69 70 71 69 68 66 64 63 64 66 69 73 75 74 70 60 49 37 27 22 24 28 30 30 29 28
Wind_Direction
53 69 97 119 133 146 161 169 167 191 243 293 315 329 342 346 344 339 325 322 317 313 308 304 301 298 296 294 293 291 289 287 283 280 277 275 273 272 270 269 266 263 260 257 254 252 251 250 249
80 90 104 116 132 144 157 164 163 178 201 261 316 344 357 359 2 354 338 330 324 321 319 317 314 312 310 308 306 304 302 299 296 292 289 285 282 279 276 274 271 267 264 260 257 253 251 250 249
89 92 103 124 129 128 134 126 120 130 120 59 15 8 4 360 357 349 346 343 339 335 331 328 324 321 318 314 311 308 305 302 300 297 295 292 289 286 283 280 277 273 269 265 261 257 253 250 248
85 86 94 104 104 106 105 100 97 91 76 51 30 20 13 9 3 358 354 347 341 335 330 325 321 317 313 310 307 304 302 299 297 295 293 291 289 287 285 283 280 277 274 270 266 262 258 254 250
78 82 86 84 86 85 83 82 79 73 64 53 41 30 22 12 2 353 344 338 332 327 322 319 315 312 309 306 304 301 299 297 296 294 292 290 288 286 284 282 280 278 275 272 269 266 263 258 254
78 78 78 77 77 77 78 77 75 70 64 56 41 24 10 358 347 339 334 329 324 320 317 314 311 308 306 304 302 301 299 297 295 293 291 290 288 286 284 282 279 277 274 272 270 267 265 262 258
82 76 75 77 79 80 80 78 74 65 54 37 16 1 350 341 334 329 324 320 317 315 313 311 310 308 306 305 303 301 298 297 295 293 292 290 289 287 285 282 280 277 274 271 269 266 264 261 259
84 81 81 80 81 80 76 72 62 47 28 6 352 341 334 329 325 321 319 317 316 314 313 311 309 308 306 304 302 300 299 297 295 294 292 290 289 287 285 282 279 277 274 271 267 264 262 260 258
85 86 85 82 78 72 62 51 31 13 355 342 334 330 327 325 322 320 318 316 315 313 312 310 308 307 305 303 302 300 299 297 295 293 291 289 287 285 283 281 279 276 273 270 266 263 260 257 255
89 90 82 73 63 51 30 9 355 346 339 334 330 328 326 323 321 318 316 315 314 313 311 310 308 306 305 304 302 301 299 297 295 293 290 288 286 284 282 280 277 275 272 269 266 262 258 255 252
90 82 67 48 25 7 353 344 340 335 332 331 328 326 323 320 317 316 315 314 314 312 311 310 309 307 306 305 303 302 300 298 295 293 291 288 285 283 280 278 276 273 271 268 265 262 258 254 250
81 60 29 5 351 342 336 333 332 331 329 327 325 323 320 317 316 316 316 315 314 313 313 312 311 310 308 307 305 303 301 298 296 294 292 289 287 285 283 280 277 274 271 268 264 261 257 254 249
25 0 346 338 332 329 327 327 327 328 326 324 322 320 319 318 317 317 316 316 316 316 316 315 313 312 310 308 306 304 303 301 299 297 295 293 291 289 286 283 279 276 272 269 265 262 258 253 249
339 332 328 328 328 327 325 324 325 326 325 324 322 321 320 318 318 318 318 318 318 318 317 316 315 313 312 310 308 307 305 303 302 301 299 297 294 290 286 282 278 274 270 267 264 260 256 252 248
325 322 321 323 325 324 323 321 324 325 324 323 322 320 320 320 320 320 321 320 320 319 319 317 316 315 314 313 311 309 308 307 306 305 303 300 297 293 289 284 279 274 269 264 260 257 253 249 245
316 314 317 321 321 321 321 319 320 321 322 323 322 321 321 322 323 322 322 322 322 322 321 320 319 318 317 315 313 312 312 312 310 309 306 304 301 298 293 288 283 276 270 264 258 254 250 246 242
315 315 314 312 312 316 319 319 319 322 326 326 325 324 324 324 324 324 325 325 325 324 324 323 321 320 318 317 316 316 316 315 313 311 309 307 304 300 296 291 285 279 273 266 260 253 248 244 241
309 299 299 304 315 321 325 326 324 328 328 327 327 327 327 326 327 328 329 328 328 327 326 324 322 321 319 319 319 319 318 316 315 313 311 309 306 302 298 294 288 281 275 268 262 255 249 244 239
315 314 319 326 329 329 331 331 327 328 328 329 329 329 329 330 331 331 331 331 331 329 327 325 323 322 321 321 321 320 318 317 316 315 314 312 310 307 304 299 293 286 279 272 265 258 251 245 240
327 332 333 331 328 328 333 332 326 327 330 332 333 334 334 333 334 333 333 333 332 330 327 325 324 324 324 323 323 322 321 321 320 319 318 316 315 313 310 306 300 293 285 277 269 262 254 247 241
336 336 333 331 330 331 334 332 328 332 335 337 337 337 336 335 335 335 335 334 332 329 327 326 326 326 326 325 325 324 324 323 322 322 320 319 318 316 314 310 305 299 291 283 275 266 258 250 243
337 335 333 334 336 335 334 336 336 339 340 339 339 338 337 337 337 337 335 333 331 330 328 328 328 328 328 327 326 326 326 325 325 324 323 322 320 318 316 312 308 302 296 288 281 272 262 253 245
337 337 337 338 338 334 335 339 340 340 340 340 339 339 338 338 338 337 335 333 332 331 330 330 330 330 329 329 328 329 328 328 327 326 324 322 320 317 314 311 307 303 297 290 284 277 267 256 247
340 341 339 338 338 338 342 340 339 340 340 340 340 340 339 339 339 337 336 334 333 332 332 332 331 331 331 330 330 331 330 329 327 326 324 322 319 315 312 309 305 301 296 290 283 278 271 261 250
343 341 339 338 343 343 341 340 339 339 341 342 341 340 340 340 339 338 336 335 334 334 333 333 332 333 332 332 333 332 331 329 328 326 325 323 320 316 311 307 303 298 293 288 282 276 271 263 253
345 343 341 339 339 340 340 342 339 340 342 342 341 341 341 341 340 339 337 336 336 335 335 334 334 334 334 334 335 334 332 330 329 328 327 325 322 318 313 308 302 295 289 284 279 273 268 263 254
344 343 341 337 335 338 343 342 339 342 342 341 341 341 342 343 342 340 339 338 337 336 336 336 336 336 337 337 337 336 334 332 331 330 329 328 324 320 315 309 301 292 285 279 274 269 265 260 253
343 341 340 339 338 338 340 342 341 342 341 340 341 343 344 344 342 341 340 339 338 338 338 337 338 338 339 339 339 338 337 335 335 334 333 331 328 324 318 311 303 292 280 272 267 263 260 255 250
342 341 339 339 338 336 337 342 340 340 341 340 343 345 345 344 343 342 341 340 339 339 339 339 340 340 341 341 341 341 340 339 339 338 337 335 332 329 324 318 309 296 279 265 259 256 253 249 245
346 343 341 339 338 336 336 339 339 340 340 342 344 345 346 345 344 343 342 341 340 340 341 341 341 342 342 343 344 344 343 343 343 342 342 341 339 337 334 332 326 313 286 259 250 247 245 242 239
Height
5872 5873 5874 5876 5876 5875 5874 5874 5874 5874 5875 5874 5874 5874 5874 5875 5876 5878 5875 5872 5871 5870 5869 5868 5866 5865 5863 5861 5859 5857 5855 5853 5852 5850 5848 5846 5845 5843 5842 5841 5841 5840 5841 5841 5841 5842 5842 5842 5842
5872 5873 5875 5875 5874 5874 5875 5874 5874 5875 5876 5875 5874 5875 5875 5874 5875 5874 5873 5872 5871 5869 5868 5866 5864 5862 5860 5858 5856 5854 5851 5849 5847 5844 5842 5840 5838 5836 5834 5833 5832 5831 5831 5831 5831 5832 5833 5833 5834
5874 5875 5876 5875 5874 5875 5876 5876 5876 5877 5877 5877 5877 5877 5876 5875 5875 5874 5872 5871 5870 5868 5866 5864 5862 5859 5857 5854 5852 5849 5846 5844 5841 5838 5836 5833 5831 5828 5826 5824 5823 5822 5821 5820 5820 5821 5822 5823 5824
5877 5878 5878 5877 5877 5877 5877 5877 5878 5879 5879 5879 5879 5878 5876 5876 5875 5873 5872 5870 5868 5865 5863 5860 5858 5855 5852 5849 5846 5843 5840 5837 5834 5831 5828 5825 5822 5820 5817 5815 5813 5812 5811 5810 5810 5810 5811 5812 5813
5880 5880 5880 5879 5880 5880 5879 5879 5880 5880 5879 5878 5879 5878 5876 5875 5874 5872 5869 5867 5865 5862 5859 5856 5852 5849 5845 5842 5838 5834 5831 5827 5824 5820 5817 5814 5811 5809 5806 5804 5802 5801 5799 5799 5798 5798 5799 5800 5801
5882 5882 5882 5881 5881 5881 5880 5880 5880 5880 5879 5879 5879 5878 5876 5874 5872 5869 5866 5863 5860 5857 5854 5850 5846 5842 5838 5834 5829 5824 5820 5816 5811 5807 5804 5801 5798 5794 5792 5790 5788 5787 5786 5785 5786 5786 5786 5787 5788
5885 5884 5883 5883 5883 5882 5882 5882 5881 5880 5880 5879 5878 5877 5874 5872 5869 5866 5863 5860 5856 5852 5848 5844 5839 5834 5828 5823 5818 5812 5807 5802 5796 5792 5788 5784 5780 5777 5774 5772 5770 5770 5769 5769 5770 5771 5772 5773 5774
5886 5886 5885 5885 5885 5884 5884 5883 5882 5881 5881 5879 5877 5875 5873 5870 5867 5863 5859 5855 5850 5846 5841 5836 5830 5824 5818 5812 5806 5799 5792 5786 5780 5775 5770 5765 5760 5757 5754 5751 5749 5748 5749 5750 5752 5753 5754 5756 5758
5888 5889 5887 5887 5886 5885 5884 5884 5883 5881 5880 5878 5875 5873 5870 5866 5862 5858 5853 5848 5843 5838 5833 5827 5821 5815 5808 5801 5794 5786 5778 5771 5763 5757 5752 5746 5740 5735 5732 5728 5726 5725 5726 5728 5729 5731 5734 5737 5740
5890 5889 5889 5888 5887 5886 5884 5883 5882 5880 5878 5876 5873 5869 5866 5861 5857 5852 5847 5842 5837 5832 5826 5819 5812 5805 5797 5788 5780 5771 5762 5753 5744 5737 5730 5724 5718 5712 5707 5703 5700 5700 5701 5702 5704 5707 5711 5715 5719
5890 5890 5889 5888 5887 5885 5884 5882 5880 5878 5875 5873 5869 5866 5861 5856 5851 5847 5842 5837 5831 5824 5817 5809 5801 5792 5782 5772 5763 5753 5743 5733 5723 5714 5706 5699 5692 5685 5680 5676 5673 5672 5674 5675 5678 5681 5685 5690 5696
5891 5890 5889 5887 5886 5884 5882 5880 5878 5876 5873 5870 5866 5862 5857 5852 5846 5841 5836 5830 5823 5815 5807 5797 5787 5776 5765 5754 5743 5732 5721 5710 5699 5689 5680 5671 5663 5656 5651 5646 5643 5642 5644 5646 5648 5652 5658 5664 5670
5891 5890 5888 5887 5884 5882 5880 5878 5876 5873 5870 5866 5862 5858 5852 5847 5841 5835 5829 5821 5813 5804 5794 5783 5772 5760 5748 5736 5723 5710 5698 5685 5672 5660 5649 5640 5632 5626 5620 5615 5611 5611 5612 5614 5617 5621 5628 5635 5642
5891 5889 5887 5885 5883 5880 5877 5875 5873 5870 5866 5863 5858 5853 5848 5842 5835 5828 5820 5811 5802 5792 5782 5770 5757 5743 5730 5716 5702 5688 5674 5659 5645 5632 5621 5611 5603 5597 5591 5586 5583 5581 5581 5582 5585 5590 5597 5604 5613
5890 5888 5886 5884 5881 5878 5876 5872 5869 5866 5863 5859 5854 5849 5843 5836 5828 5819 5810 5801 5791 5780 5768 5755 5741 5726 5711 5696 5680 5664 5649 5634 5620 5608 5597 5587 5579 5573 5567 5562 5558 5556 5555 5555 5557 5560 5567 5574 5583
5888 5886 5884 5882 5879 5876 5875 5871 5867 5863 5859 5855 5850 5843 5836 5828 5820 5811 5801 5790 5779 5767 5754 5739 5723 5708 5692 5676 5659 5642 5626 5612 5599 5587 5577 5567 5558 5550 5544 5539 5535 5533 5531 5530 5532 5535 5540 5547 5554
5886 5883 5881 5880 5877 5874 5872 5868 5863 5858 5854 5849 5843 5837 5829 5821 5812 5802 5791 5779 5767 5753 5738 5722 5707 5692 5675 5658 5640 5623 5608 5594 5581 5569 5558 5548 5538 5529 5522 5517 5513 5510 5508 5507 5508 5511 5516 5522 5529
5886 5883 5880 5878 5875 5872 5868 5864 5858 5853 5849 5843 5837 5830 5822 5813 5803 5792 5779 5767 5752 5737 5722 5707 5692 5676 5660 5642 5625 5609 5594 5579 5566 5553 5541 5530 5520 5511 5504 5498 5493 5489 5487 5486 5486 5488 5493 5499 5506
5882 5880 5877 5873 5870 5867 5864 5859 5854 5849 5844 5838 5831 5823 5814 5803 5792 5780 5768 5753 5738 5722 5707 5692 5677 5661 5644 5628 5613 5599 5584 5569 5554 5539 5525 5514 5504 5495 5487 5481 5475 5471 5468 5466 5465 5467 5471 5476 5483
5878 5876 5873 5870 5867 5864 5861 5856 5850 5845 5839 5833 5824 5815 5804 5793 5781 5769 5755 5740 5725 5710 5694 5678 5662 5645 5628 5612 5597 5582 5568 5553 5538 5524 5511 5500 5491 5482 5474 5467 5460 5455 5451 5448 5446 5447 5450 5455 5460
5876 5874 5871 5869 5865 5860 5857 5854 5847 5841 5834 5826 5816 5805 5795 5783 5771 5758 5743 5728 5713 5698 5681 5664 5647 5630 5613 5598 5584 5569 5555 5540 5526 5514 5502 5491 5481 5472 5463 5455 5448 5442 5437 5433 5430 5429 5430 5435 5440
5874 5872 5869 5865 5862 5857 5853 5849 5842 5835 5827 5818 5808 5798 5786 5774 5762 5747 5733 5718 5702 5685 5668 5650 5632 5615 5600 5585 5570 5555 5541 5528 5515 5503 5492 5481 5470 5461 5452 5444 5436 5429 5424 5419 5416 5413 5413 5416 5421
5872 5869 5866 5862 5858 5854 5849 5843 5837 5829 5821 5812 5801 5790 5778 5766 5753 5738 5724 5708 5691 5673 5655 5637 5619 5603 5588 5572 5557 5542 5527 5514 5503 5492 5482 5471 5460 5449 5439 5430 5422 5415 5410 5405 5401 5398 5397 5398 5402
5869 5866 5863 5859 5855 5850 5844 5837 5831 5823 5815 5805 5794 5782 5771 5758 5744 5730 5714 5697 5680 5662 5644 5626 5609 5593 5577 5561 5545 5530 5516 5504 5493 5483 5472 5461 5449 5437 5425 5416 5407 5400 5394 5390 5386 5384 5382 5382 5384
5867 5864 5860 5854 5850 5845 5839 5832 5826 5818 5808 5798 5787 5776 5763 5750 5736 5721 5705 5688 5670 5652 5634 5617 5600 5584 5568 5551 5535 5519 5505 5493 5482 5471 5460 5448 5435 5423 5411 5400 5391 5383 5377 5373 5370 5369 5367 5367 5369
5864 5860 5856 5850 5845 5841 5835 5827 5820 5811 5801 5791 5780 5769 5757 5743 5728 5712 5696 5679 5660 5643 5625 5608 5591 5575 5559 5542 5525 5510 5496 5483 5471 5458 5445 5432 5418 5405 5392 5380 5371 5363 5358 5355 5353 5353 5353 5353 5355
5862 5857 5853 5847 5840 5834 5828 5822 5812 5803 5795 5785 5774 5763 5750 5735 5719 5703 5687 5669 5651 5634 5616 5599 5583 5567 5550 5533 5517 5502 5487 5474 5461 5447 5431 5415 5399 5384 5369 5357 5347 5340 5336 5334 5335 5336 5337 5339 5341
5860 5854 5849 5842 5834 5827 5822 5816 5807 5798 5789 5779 5768 5756 5741 5727 5711 5695 5678 5660 5642 5625 5608 5591 5574 5558 5541 5525 5509 5493 5479 5465 5451 5435 5418 5401 5382 5363 5345 5330 5319 5313 5311 5312 5315 5319 5322 5326 5329
5857 5852 5845 5839 5832 5823 5815 5813 5803 5793 5784 5773 5761 5748 5734 5720 5703 5687 5670 5652 5635 5617 5600 5584 5568 5552 5536 5519 5503 5487 5472 5457 5441 5424 5406 5386 5365 5342 5322 5305 5294 5288 5287 5291 5296 5302 5308 5313 5318
5854 5848 5842 5836 5829 5820 5811 5808 5797 5788 5778 5767 5754 5741 5727 5712 5696 5679 5663 5645 5628 5611 5595 5579 5563 5547 5530 5514 5497 5481 5466 5450 5434 5416 5396 5374 5350 5325 5304 5287 5276 5271 5270 5275 5281 5288 5296 5302 5308